GIA969 OEMA-WIII

Flight info

Callsign GIA969
Flight time N/A
Altitude 37000
Route MEDR1J MEDRO M872 BDB Y214 RAPMA DEGNO GOBRO L425 ASPUX UL425 TVM N640 KAT M766 PAGAI G461 BIDAK
Aircraft B77W/H-SDE1E2E3FGHIJ2J3J4J5M1RWXY/LB1D1

Departure

Time 2026-05-04 15:51
Airport Prince Mohammad Bin Abdulaziz Airport (OEMA)

Arrival

Time N/A
Airport Soekarno-Hatta International Airport (WIII)
Time Latitude Longitude Altitude Speed Heading
2026-05-04 15:48 24.56985 39.70665 2165 ft 19 kts 349°
2026-05-04 15:48 24.57290 39.70601 2165 ft 24 kts 349°
2026-05-04 15:49 24.57464 39.70565 2165 ft 26 kts 348°
2026-05-04 15:49 24.57617 39.70534 2165 ft 14 kts 349°
2026-05-04 15:49 24.57656 39.70471 2165 ft 12 kts 267°
2026-05-04 15:49 24.57642 39.70380 2165 ft 10 kts 259°
2026-05-04 15:50 24.57601 39.70348 2165 ft 9 kts 178°
2026-05-04 15:50 24.57507 39.70364 2165 ft 26 kts 170°
2026-05-04 15:50 24.57091 39.70452 2165 ft 98 kts 169°
2026-05-04 15:50 24.56158 39.70651 2165 ft 167 kts 169°
2026-05-04 15:51 24.55327 39.70824 2192 ft 199 kts 171°
2026-05-04 15:51 24.53864 39.71149 2699 ft 213 kts 171°
2026-05-04 15:51 24.52405 39.71498 3442 ft 219 kts 171°
2026-05-04 15:51 24.50906 39.71829 4350 ft 216 kts 173°
2026-05-04 15:52 24.49362 39.72150 4777 ft 235 kts 173°
2026-05-04 15:52 24.47676 39.72553 5178 ft 256 kts 166°
2026-05-04 15:52 24.46072 39.73595 5510 ft 283 kts 139°
2026-05-04 15:52 24.44993 39.75434 6279 ft 290 kts 113°
2026-05-04 15:53 24.44548 39.77600 7269 ft 294 kts 98°
2026-05-04 15:53 24.44506 39.79779 8005 ft 300 kts 91°
2026-05-04 15:53 24.44538 39.82182 8841 ft 304 kts 90°
2026-05-04 15:53 24.44583 39.84388 9634 ft 307 kts 90°
2026-05-04 15:54 24.44632 39.86854 10414 ft 314 kts 90°
2026-05-04 15:54 24.44679 39.89333 10942 ft 330 kts 90°
2026-05-04 15:54 24.44730 39.91952 11378 ft 349 kts 90°
2026-05-04 15:54 24.44780 39.94691 11777 ft 369 kts 90°
2026-05-04 15:55 24.44831 39.97584 12204 ft 386 kts 90°
2026-05-04 15:55 24.44885 40.00587 12727 ft 401 kts 90°
2026-05-04 15:55 24.44939 40.03697 13345 ft 412 kts 90°
2026-05-04 15:55 24.44993 40.06857 14027 ft 420 kts 90°
2026-05-04 15:56 24.45046 40.09977 14714 ft 426 kts 90°
2026-05-04 15:56 24.45103 40.13377 15409 ft 433 kts 90°
2026-05-04 15:56 24.45158 40.16715 16060 ft 440 kts 90°
2026-05-04 15:56 24.45209 40.19866 16659 ft 446 kts 90°
2026-05-04 15:57 24.45269 40.23575 17369 ft 452 kts 90°
2026-05-04 15:57 24.45329 40.27099 17976 ft 459 kts 90°
2026-05-04 15:57 24.45399 40.30581 18561 ft 465 kts 90°
2026-05-04 15:57 24.45458 40.34147 19143 ft 471 kts 89°
2026-05-04 15:58 24.45513 40.37782 19703 ft 477 kts 89°
2026-05-04 15:58 24.45566 40.41533 20249 ft 483 kts 89°
2026-05-04 15:58 24.45618 40.45193 20777 ft 489 kts 90°
2026-05-04 15:58 24.45667 40.48893 21271 ft 494 kts 90°
2026-05-04 15:59 24.45718 40.52737 21770 ft 500 kts 90°
2026-05-04 15:59 24.45769 40.56476 22254 ft 505 kts 90°
2026-05-04 15:59 24.45805 40.60499 22743 ft 510 kts 92°
2026-05-04 15:59 24.45651 40.64402 23206 ft 514 kts 96°
2026-05-04 16:00 24.45317 40.68319 23648 ft 518 kts 98°
2026-05-04 16:00 24.44866 40.72253 24073 ft 522 kts 100°
2026-05-04 16:00 24.44390 40.76218 24488 ft 527 kts 100°
2026-05-04 16:00 24.43944 40.80228 24896 ft 531 kts 99°
2026-05-04 16:01 24.43516 40.84278 25341 ft 534 kts 99°
2026-05-04 16:01 24.43092 40.88341 25823 ft 536 kts 99°
2026-05-04 16:01 24.42660 40.92473 26165 ft 541 kts 99°
2026-05-04 16:01 24.42229 40.96596 26562 ft 544 kts 100°
2026-05-04 16:02 24.41796 41.00727 26968 ft 547 kts 100°
2026-05-04 16:02 24.41384 41.04673 27410 ft 548 kts 100°
2026-05-04 16:02 24.40481 41.13271 28117 ft 555 kts 100°
2026-05-04 16:03 24.40036 41.17483 28445 ft 558 kts 100°
2026-05-04 16:03 24.39585 41.21725 28758 ft 561 kts 101°
2026-05-04 16:03 24.39113 41.26157 29077 ft 563 kts 101°
2026-05-04 16:03 24.38651 41.30489 29412 ft 565 kts 101°
2026-05-04 16:04 24.38199 41.34714 29743 ft 566 kts 101°
2026-05-04 16:04 24.37268 41.43398 30680 ft 563 kts 101°
2026-05-04 16:04 24.36826 41.47653 31099 ft 563 kts 101°
2026-05-04 16:05 24.36400 41.51918 31615 ft 560 kts 101°
2026-05-04 16:05 24.35955 41.56148 32045 ft 558 kts 101°
2026-05-04 16:05 24.35176 41.63327 32790 ft 555 kts 102°
2026-05-04 16:06 24.34717 41.67523 33234 ft 553 kts 102°
2026-05-04 16:06 24.33346 41.80003 34532 ft 546 kts 102°
2026-05-04 16:07 24.32717 41.84090 34914 ft 541 kts 107°
2026-05-04 16:07 24.29800 41.95575 35973 ft 532 kts 113°
2026-05-04 16:08 24.28602 41.99750 36363 ft 531 kts 112°
2026-05-04 16:08 24.25444 42.11380 36874 ft 535 kts 111°
2026-05-04 16:09 24.23366 42.19191 36889 ft 541 kts 111°
2026-05-04 16:10 24.19139 42.35257 36889 ft 541 kts 111°
2026-05-04 16:11 24.14945 42.50999 36890 ft 540 kts 111°
2026-05-04 16:12 24.08597 42.74729 36891 ft 539 kts 111°
2026-05-04 16:13 24.04306 42.90617 36893 ft 538 kts 111°
2026-05-04 16:14 24.00006 43.06419 36893 ft 538 kts 111°
2026-05-04 16:16 23.94622 43.26131 36895 ft 538 kts 111°
2026-05-04 16:17 23.89518 43.44905 36899 ft 537 kts 111°
2026-05-04 16:18 23.85231 43.60574 36899 ft 536 kts 111°
2026-05-04 16:19 23.79805 43.80164 36899 ft 536 kts 111°
2026-05-04 16:20 23.76282 44.00263 36901 ft 542 kts 96°
2026-05-04 16:22 23.74967 44.20929 36903 ft 545 kts 98°
2026-05-04 16:23 23.73105 44.45767 36904 ft 546 kts 97°
2026-05-04 16:25 23.71186 44.70596 36904 ft 546 kts 97°
2026-05-04 16:26 23.68889 44.99473 36900 ft 544 kts 98°
2026-05-04 16:28 23.67201 45.20047 36893 ft 542 kts 98°
2026-05-04 16:29 23.64890 45.48047 36889 ft 542 kts 98°
2026-05-04 16:31 23.63117 45.68883 36888 ft 542 kts 98°
2026-05-04 16:32 23.60971 45.93507 36885 ft 542 kts 98°
2026-05-04 16:33 23.59562 46.09883 36883 ft 542 kts 98°
2026-05-04 16:34 23.58506 46.22122 36882 ft 542 kts 98°
2026-05-04 16:35 23.56410 46.45402 36881 ft 542 kts 98°
2026-05-04 16:36 23.55282 46.57780 36880 ft 542 kts 99°
2026-05-04 16:37 23.54161 46.69890 36880 ft 542 kts 99°
2026-05-04 16:38 23.52566 46.86947 36880 ft 542 kts 99°
2026-05-04 16:39 23.50677 47.07470 36876 ft 543 kts 99°
2026-05-04 16:40 23.49171 47.23581 36864 ft 543 kts 98°
2026-05-04 16:41 23.47153 47.44443 36862 ft 543 kts 99°
2026-05-04 16:43 23.45262 47.63744 36860 ft 543 kts 99°
2026-05-04 16:43 23.44075 47.75690 36860 ft 543 kts 99°
2026-05-04 16:45 23.41628 48.00512 36857 ft 543 kts 98°
2026-05-04 16:46 23.39568 48.20994 36852 ft 542 kts 99°
2026-05-04 16:47 23.36877 48.37056 36843 ft 536 kts 117°
2026-05-04 16:48 23.30844 48.47136 36845 ft 525 kts 130°
2026-05-04 16:48 23.28744 48.50381 36845 ft 523 kts 129°
2026-05-04 16:49 23.20622 48.64078 36844 ft 525 kts 127°
2026-05-04 16:50 23.12705 48.77634 36840 ft 525 kts 127°
2026-05-04 16:51 23.06804 48.87627 36840 ft 525 kts 127°
2026-05-04 16:52 22.99816 48.99436 36837 ft 525 kts 127°
2026-05-04 16:53 22.92952 49.09847 36837 ft 525 kts 132°
2026-05-04 16:54 22.84143 49.22589 36831 ft 521 kts 131°
2026-05-04 16:55 22.71064 49.41827 36802 ft 524 kts 131°
2026-05-04 16:56 22.60364 49.57517 36796 ft 508 kts 131°
2026-05-04 16:57 22.53985 49.66843 36794 ft 519 kts 131°
2026-05-04 16:58 22.47463 49.76344 36840 ft 504 kts 128°
2026-05-04 16:58 22.45411 49.79337 36841 ft 500 kts 128°
2026-05-04 17:00 22.33000 49.97400 36839 ft 496 kts 128°
2026-05-04 17:01 22.22706 50.12331 36840 ft 496 kts 128°
2026-05-04 17:02 22.14896 50.23630 36838 ft 496 kts 128°
2026-05-04 17:03 22.08579 50.32750 36837 ft 497 kts 128°
2026-05-04 17:03 22.02541 50.41455 36837 ft 497 kts 128°
2026-05-04 17:04 21.94061 50.53654 36836 ft 497 kts 128°
2026-05-04 17:05 21.85722 50.65625 36835 ft 497 kts 128°
2026-05-04 17:06 21.79569 50.74441 36834 ft 497 kts 128°
2026-05-04 17:07 21.73867 50.82597 36827 ft 497 kts 128°
2026-05-04 17:07 21.69030 50.89506 36817 ft 497 kts 128°
2026-05-04 17:08 21.62734 50.98488 36813 ft 497 kts 128°
2026-05-04 17:09 21.58575 51.04412 36811 ft 497 kts 128°
2026-05-04 17:09 21.54792 51.09795 36811 ft 497 kts 128°
2026-05-04 17:10 21.44471 51.24456 36811 ft 497 kts 128°
2026-05-04 17:11 21.40222 51.30480 36812 ft 497 kts 128°
2026-05-04 17:12 21.33888 51.39448 36810 ft 497 kts 128°
2026-05-04 17:13 21.23265 51.54457 36809 ft 497 kts 128°
2026-05-04 17:14 21.15346 51.65619 36808 ft 497 kts 128°
2026-05-04 17:15 21.08464 51.75301 36807 ft 497 kts 128°
2026-05-04 17:16 21.00558 51.86403 36805 ft 497 kts 128°
2026-05-04 17:17 20.92120 51.98228 36806 ft 497 kts 128°
2026-05-04 17:18 20.83562 52.10198 36803 ft 498 kts 128°
2026-05-04 17:19 20.75118 52.21981 36803 ft 497 kts 128°
2026-05-04 17:20 20.66647 52.33778 36799 ft 506 kts 128°
2026-05-04 17:20 20.60212 52.42725 36801 ft 502 kts 128°
2026-05-04 17:21 20.51833 52.54350 36775 ft 505 kts 128°
2026-05-04 17:22 20.47287 52.60651 36778 ft 512 kts 128°
2026-05-04 17:23 20.39311 52.71686 36778 ft 507 kts 128°
2026-05-04 17:24 20.32916 52.80516 36776 ft 514 kts 128°
2026-05-04 17:25 20.24040 52.92754 36776 ft 514 kts 128°
2026-05-04 17:26 20.15220 53.04887 36776 ft 514 kts 128°
2026-05-04 17:27 20.03904 53.20418 36776 ft 514 kts 128°
2026-05-04 17:28 19.95635 53.31741 36778 ft 514 kts 128°
2026-05-04 17:29 19.82643 53.49490 36779 ft 514 kts 128°
2026-05-04 17:31 19.71482 53.64714 36778 ft 514 kts 128°
2026-05-04 17:32 19.60628 53.80107 36777 ft 514 kts 118°
2026-05-04 17:33 19.57392 53.90850 36778 ft 515 kts 104°
2026-05-04 17:33 19.56425 53.94564 36780 ft 515 kts 106°
2026-05-04 17:34 19.52297 54.09100 36778 ft 514 kts 106°
2026-05-04 17:35 19.47139 54.27307 36779 ft 514 kts 107°
2026-05-04 17:36 19.45129 54.34385 36779 ft 514 kts 106°
2026-05-04 17:36 19.43006 54.41950 36791 ft 514 kts 106°
2026-05-04 17:37 19.40951 54.49205 36805 ft 514 kts 107°
2026-05-04 17:37 19.38858 54.56564 36805 ft 514 kts 107°
2026-05-04 17:38 19.36790 54.63820 36804 ft 514 kts 107°
2026-05-04 17:38 19.34707 54.71113 36804 ft 514 kts 107°
2026-05-04 17:39 19.31946 54.80765 36803 ft 514 kts 107°
2026-05-04 17:39 19.29713 54.88552 36803 ft 514 kts 107°
2026-05-04 17:40 19.27564 54.96037 36803 ft 514 kts 107°
2026-05-04 17:40 19.25465 55.03333 36802 ft 514 kts 107°
2026-05-04 17:41 19.23275 55.10931 36802 ft 514 kts 107°
2026-05-04 17:41 19.21778 55.16118 36801 ft 514 kts 107°
2026-05-04 17:42 19.20028 55.22175 36800 ft 514 kts 107°
2026-05-04 17:42 19.17901 55.29528 36800 ft 514 kts 107°
2026-05-04 17:43 19.15792 55.36806 36798 ft 514 kts 107°
2026-05-04 17:43 19.13716 55.44003 36798 ft 514 kts 107°
2026-05-04 17:44 19.11605 55.51272 36798 ft 513 kts 107°
2026-05-04 17:44 19.09502 55.58473 36796 ft 513 kts 106°
2026-05-04 17:45 19.07381 55.65726 36795 ft 512 kts 106°
2026-05-04 17:45 19.05276 55.72923 36795 ft 513 kts 107°
2026-05-04 17:46 19.03167 55.80141 36794 ft 513 kts 107°
2026-05-04 17:46 19.01029 55.87397 36792 ft 512 kts 107°
2026-05-04 17:47 18.98917 55.94551 36790 ft 513 kts 107°
2026-05-04 17:47 18.96752 56.01884 36792 ft 509 kts 107°
2026-05-04 17:48 18.94662 56.08936 36790 ft 499 kts 108°
2026-05-04 17:48 18.92552 56.16004 36787 ft 497 kts 108°
2026-05-04 17:49 18.90473 56.22966 36786 ft 498 kts 108°
2026-05-04 17:49 18.88386 56.29947 36785 ft 498 kts 108°
2026-05-04 17:50 18.86288 56.36968 36783 ft 498 kts 108°
2026-05-04 17:50 18.84221 56.43962 36782 ft 498 kts 108°
2026-05-04 17:51 18.82129 56.50985 36780 ft 498 kts 108°
2026-05-04 17:51 18.80052 56.57931 36779 ft 499 kts 108°
2026-05-04 17:52 18.77961 56.64909 36777 ft 499 kts 108°
2026-05-04 17:52 18.75870 56.71872 36776 ft 499 kts 108°
2026-05-04 17:53 18.73713 56.79044 36773 ft 499 kts 108°
2026-05-04 17:53 18.71936 56.84946 36772 ft 499 kts 108°
2026-05-04 17:54 18.69831 56.91925 36773 ft 499 kts 108°
2026-05-04 17:54 18.67722 56.98908 36770 ft 499 kts 108°
2026-05-04 17:55 18.65522 57.06184 36768 ft 499 kts 108°
2026-05-04 17:55 18.63596 57.12542 36766 ft 499 kts 108°
2026-05-04 17:56 18.61117 57.20713 36764 ft 499 kts 108°
2026-05-04 17:56 18.58994 57.27701 36763 ft 499 kts 108°
2026-05-04 17:57 18.56873 57.34670 36762 ft 499 kts 108°
2026-05-04 17:57 18.54748 57.41646 36761 ft 499 kts 108°
2026-05-04 17:58 18.52617 57.48630 36759 ft 500 kts 109°
2026-05-04 17:58 18.50483 57.55612 36758 ft 500 kts 109°
2026-05-04 17:59 18.48711 57.61404 36757 ft 500 kts 109°
2026-05-04 18:00 18.45516 57.71878 36754 ft 500 kts 109°
2026-05-04 18:00 18.43317 57.79031 36754 ft 500 kts 109°
2026-05-04 18:01 18.41171 57.85991 36754 ft 500 kts 109°
2026-05-04 18:01 18.39035 57.92912 36751 ft 500 kts 109°
2026-05-04 18:02 18.35783 58.03411 36750 ft 500 kts 109°
2026-05-04 18:02 18.33600 58.10400 36750 ft 500 kts 109°
2026-05-04 18:03 18.31410 58.17402 36748 ft 500 kts 109°
2026-05-04 18:03 18.29228 58.24371 36748 ft 500 kts 109°
2026-05-04 18:04 18.27035 58.31366 36747 ft 500 kts 109°
2026-05-04 18:05 18.23779 58.41850 36747 ft 500 kts 109°
2026-05-04 18:05 18.21599 58.48826 36746 ft 500 kts 109°
2026-05-04 18:06 18.18349 58.59187 36745 ft 500 kts 109°
2026-05-04 18:06 18.16102 58.66331 36744 ft 500 kts 109°
2026-05-04 18:07 18.14107 58.72670 36744 ft 500 kts 109°
2026-05-04 18:07 18.11913 58.79628 36743 ft 500 kts 109°
2026-05-04 18:08 18.09737 58.86519 36744 ft 500 kts 109°
2026-05-04 18:08 18.07484 58.93644 36744 ft 500 kts 109°
2026-05-04 18:09 18.03057 59.07614 36743 ft 500 kts 109°
2026-05-04 18:10 18.00810 59.14693 36743 ft 500 kts 109°
2026-05-04 18:10 17.98624 59.21568 36742 ft 500 kts 109°
2026-05-04 18:11 17.96355 59.28692 36742 ft 500 kts 109°
2026-05-04 18:11 17.94156 59.35592 36742 ft 500 kts 109°
2026-05-04 18:12 17.91933 59.42554 36743 ft 500 kts 109°
2026-05-04 18:12 17.89704 59.49525 36743 ft 500 kts 109°
2026-05-04 18:13 17.87489 59.56446 36743 ft 500 kts 109°
2026-05-04 18:14 17.84506 59.65750 36742 ft 500 kts 109°
2026-05-04 18:14 17.82298 59.72668 36742 ft 500 kts 109°
2026-05-04 18:15 17.77827 59.86548 36742 ft 500 kts 109°
2026-05-04 18:16 17.75595 59.93456 36741 ft 500 kts 109°
2026-05-04 18:16 17.73188 60.00337 36743 ft 499 kts 115°
2026-05-04 18:17 17.68022 60.09862 36744 ft 499 kts 123°
2026-05-04 18:18 17.62360 60.19122 36743 ft 498 kts 122°
2026-05-04 18:18 17.58791 60.25137 36743 ft 498 kts 122°
2026-05-04 18:19 17.53541 60.34075 36746 ft 498 kts 122°
2026-05-04 18:19 17.49650 60.40725 36745 ft 498 kts 122°
2026-05-04 18:20 17.45744 60.47378 36745 ft 498 kts 122°
2026-05-04 18:20 17.42418 60.53034 36746 ft 498 kts 122°
2026-05-04 18:21 17.38641 60.59452 36747 ft 498 kts 122°
2026-05-04 18:21 17.35024 60.65591 36747 ft 498 kts 122°
2026-05-04 18:22 17.31428 60.71689 36747 ft 498 kts 122°
2026-05-04 18:22 17.27566 60.78231 36747 ft 498 kts 122°
2026-05-04 18:23 17.23948 60.84354 36747 ft 498 kts 122°
2026-05-04 18:23 17.20840 60.89609 36748 ft 498 kts 122°
2026-05-04 18:24 17.16942 60.96195 36749 ft 498 kts 122°
2026-05-04 18:24 17.13655 61.01745 36749 ft 498 kts 122°
2026-05-04 18:25 17.09841 61.08177 36749 ft 498 kts 122°
2026-05-04 18:25 17.06187 61.14335 36749 ft 498 kts 122°
2026-05-04 18:26 17.02553 61.20452 36742 ft 500 kts 123°
2026-05-04 18:26 16.98860 61.26663 36742 ft 503 kts 123°
2026-05-04 18:27 16.95166 61.32871 36749 ft 500 kts 122°
2026-05-04 18:27 16.91502 61.39024 36750 ft 498 kts 122°
2026-05-04 18:28 16.87984 61.44926 36733 ft 500 kts 123°
2026-05-04 18:28 16.84103 61.51443 36696 ft 508 kts 122°
2026-05-04 18:29 16.80345 61.57748 36709 ft 513 kts 122°
2026-05-04 18:29 16.76522 61.64135 36710 ft 511 kts 122°
2026-05-04 18:30 16.70854 61.73596 36699 ft 514 kts 122°
2026-05-04 18:31 16.67005 61.80022 36698 ft 514 kts 122°
2026-05-04 18:31 16.63225 61.86308 36698 ft 514 kts 122°
2026-05-04 18:32 16.59500 61.92499 36698 ft 513 kts 122°
2026-05-04 18:32 16.55578 61.99012 36698 ft 513 kts 122°
2026-05-04 18:33 16.51775 62.05322 36699 ft 513 kts 122°
2026-05-04 18:33 16.47908 62.11761 36699 ft 514 kts 122°
2026-05-04 18:34 16.44117 62.18077 36699 ft 514 kts 122°
2026-05-04 18:34 16.40291 62.24431 36699 ft 513 kts 122°
2026-05-04 18:35 16.36878 62.30089 36699 ft 513 kts 122°
2026-05-04 18:35 16.32786 62.36866 36699 ft 513 kts 122°
2026-05-04 18:36 16.28882 62.43325 36699 ft 513 kts 122°
2026-05-04 18:36 16.25047 62.49664 36699 ft 513 kts 122°
2026-05-04 18:37 16.21228 62.55970 36699 ft 513 kts 122°
2026-05-04 18:37 16.17933 62.61408 36698 ft 513 kts 122°
2026-05-04 18:38 16.14116 62.67701 36698 ft 513 kts 122°
2026-05-04 18:38 16.10211 62.74133 36698 ft 513 kts 122°
2026-05-04 18:39 16.06367 62.80459 36698 ft 513 kts 122°
2026-05-04 18:39 16.02519 62.86786 36698 ft 513 kts 122°
2026-05-04 18:40 15.98620 62.93191 36698 ft 513 kts 122°
2026-05-04 18:40 15.94818 62.99433 36698 ft 513 kts 122°
2026-05-04 18:41 15.90994 63.05704 36699 ft 513 kts 122°
2026-05-04 18:41 15.87163 63.11983 36699 ft 513 kts 122°
2026-05-04 18:42 15.83331 63.18256 36699 ft 513 kts 122°
2026-05-04 18:42 15.79421 63.24653 36699 ft 513 kts 122°
2026-05-04 18:43 15.75594 63.30909 36699 ft 513 kts 122°
2026-05-04 18:43 15.71760 63.37170 36699 ft 513 kts 122°
2026-05-04 18:44 15.67922 63.43432 36699 ft 513 kts 122°
2026-05-04 18:44 15.64079 63.49698 36699 ft 513 kts 122°
2026-05-04 18:45 15.60834 63.54985 36698 ft 513 kts 122°
2026-05-04 18:45 15.56369 63.62253 36699 ft 513 kts 122°
2026-05-04 18:46 15.53149 63.67490 36698 ft 513 kts 122°
2026-05-04 18:46 15.49255 63.73818 36698 ft 513 kts 122°
2026-05-04 18:47 15.45430 63.80030 36698 ft 513 kts 123°
2026-05-04 18:47 15.41555 63.86317 36698 ft 513 kts 123°
2026-05-04 18:48 15.37703 63.92561 36698 ft 513 kts 123°
2026-05-04 18:48 15.33853 63.98798 36698 ft 513 kts 123°
2026-05-04 18:49 15.30026 64.04992 36699 ft 513 kts 123°
2026-05-04 18:49 15.26144 64.11269 36699 ft 513 kts 123°
2026-05-04 18:50 15.22264 64.17538 36699 ft 513 kts 123°
2026-05-04 18:50 15.18380 64.23810 36699 ft 513 kts 123°
2026-05-04 18:51 15.14522 64.30034 36699 ft 513 kts 123°
2026-05-04 18:51 15.10653 64.36270 36699 ft 513 kts 123°
2026-05-04 18:52 15.06677 64.42674 36699 ft 513 kts 123°
2026-05-04 18:52 15.03319 64.48078 36698 ft 513 kts 123°
2026-05-04 18:53 14.99166 64.54757 36699 ft 513 kts 123°
2026-05-04 18:53 14.94989 64.61469 36699 ft 513 kts 123°
2026-05-04 18:54 14.91094 64.67723 36699 ft 513 kts 123°
2026-05-04 18:54 14.87192 64.73982 36699 ft 513 kts 123°
2026-05-04 18:55 14.83790 64.79435 36698 ft 513 kts 123°
2026-05-04 18:55 14.77823 64.88991 36699 ft 513 kts 123°
2026-05-04 18:56 14.73942 64.95219 36699 ft 513 kts 123°
2026-05-04 18:56 14.70039 65.01459 36699 ft 513 kts 123°
2026-05-04 18:57 14.66156 65.07656 36699 ft 513 kts 123°
2026-05-04 18:57 14.62218 65.13935 36699 ft 513 kts 123°
2026-05-04 18:58 14.58339 65.20122 36699 ft 513 kts 123°
2026-05-04 18:58 14.54666 65.26040 36699 ft 513 kts 123°
2026-05-04 18:59 14.50603 65.32583 36699 ft 513 kts 123°
2026-05-04 18:59 14.46743 65.38790 36699 ft 513 kts 123°
2026-05-04 19:00 14.42879 65.45000 36699 ft 513 kts 123°
2026-05-04 19:00 14.39023 65.51203 36699 ft 513 kts 122°
2026-05-04 19:01 14.35151 65.57451 36699 ft 513 kts 123°
2026-05-04 19:01 14.31315 65.63623 36699 ft 513 kts 123°
2026-05-04 19:02 14.28232 65.68574 36699 ft 513 kts 123°
2026-05-04 19:02 14.24185 65.75067 36698 ft 513 kts 123°
2026-05-04 19:03 14.19673 65.82299 36699 ft 513 kts 123°
2026-05-04 19:03 14.15802 65.88499 36699 ft 513 kts 123°
2026-05-04 19:04 14.12584 65.93648 36699 ft 513 kts 123°
2026-05-04 19:04 14.08748 65.99784 36699 ft 513 kts 123°
2026-05-04 19:05 14.04815 66.06069 36699 ft 513 kts 123°
2026-05-04 19:05 14.00942 66.12253 36699 ft 513 kts 123°
2026-05-04 19:06 13.97037 66.18485 36699 ft 513 kts 123°
2026-05-04 19:06 13.93164 66.24660 36732 ft 511 kts 123°
2026-05-04 19:07 13.91249 66.27712 36920 ft 504 kts 123°
2026-05-04 19:07 13.89346 66.30743 36934 ft 501 kts 123°
2026-05-04 19:07 13.85319 66.37156 36935 ft 497 kts 123°
2026-05-04 19:08 13.82033 66.42385 36935 ft 495 kts 123°
2026-05-04 19:08 13.78176 66.48516 36935 ft 496 kts 123°
2026-05-04 19:09 13.74396 66.54522 36935 ft 497 kts 123°
2026-05-04 19:09 13.70608 66.60538 36935 ft 497 kts 123°
2026-05-04 19:10 13.66846 66.66505 36935 ft 497 kts 123°
2026-05-04 19:10 13.63063 66.72504 36935 ft 496 kts 123°
2026-05-04 19:11 13.59299 66.78468 36935 ft 496 kts 123°
2026-05-04 19:11 13.55567 66.84376 36935 ft 497 kts 123°
2026-05-04 19:12 13.49887 66.93362 36935 ft 497 kts 123°
2026-05-04 19:13 13.46120 66.99317 36935 ft 497 kts 123°
2026-05-04 19:13 13.42348 67.05274 36935 ft 497 kts 123°
2026-05-04 19:14 13.38580 67.11222 36935 ft 497 kts 123°
2026-05-04 19:14 13.34782 67.17213 36935 ft 497 kts 123°
2026-05-04 19:15 13.31004 67.23169 36935 ft 497 kts 123°
2026-05-04 19:15 13.27232 67.29109 36935 ft 497 kts 123°
2026-05-04 19:16 13.23449 67.35064 36935 ft 497 kts 123°
2026-05-04 19:16 13.19677 67.40999 36935 ft 497 kts 123°
2026-05-04 19:17 13.15839 67.47032 36917 ft 496 kts 123°
2026-05-04 19:17 13.12050 67.52984 36916 ft 494 kts 123°
2026-05-04 19:18 13.08262 67.58932 36916 ft 494 kts 123°
2026-05-04 19:18 13.04475 67.64874 36916 ft 495 kts 123°
2026-05-04 19:19 13.01335 67.69797 36916 ft 495 kts 123°
2026-05-04 19:19 12.97367 67.76026 36916 ft 495 kts 123°
2026-05-04 19:20 12.93474 67.82130 36916 ft 495 kts 123°
2026-05-04 19:20 12.89701 67.88028 36916 ft 495 kts 123°
2026-05-04 19:21 12.85895 67.93975 36916 ft 495 kts 123°
2026-05-04 19:21 12.82090 67.99918 36915 ft 495 kts 123°
2026-05-04 19:22 12.78396 68.05720 36915 ft 495 kts 123°
2026-05-04 19:22 12.74572 68.11744 36915 ft 495 kts 123°
2026-05-04 19:23 12.70822 68.17646 36915 ft 495 kts 123°
2026-05-04 19:23 12.67018 68.23630 36915 ft 495 kts 123°
2026-05-04 19:24 12.63285 68.29497 36915 ft 495 kts 123°
2026-05-04 19:24 12.59459 68.35530 36915 ft 495 kts 123°
2026-05-04 19:25 12.55734 68.41397 36915 ft 495 kts 123°
2026-05-04 19:25 12.51976 68.47305 36915 ft 495 kts 123°
2026-05-04 19:26 12.48181 68.53263 36915 ft 495 kts 123°
2026-05-04 19:26 12.44415 68.59172 36915 ft 495 kts 123°
2026-05-04 19:27 12.40658 68.65064 36915 ft 495 kts 123°
2026-05-04 19:27 12.36895 68.70960 36914 ft 495 kts 123°
2026-05-04 19:28 12.33824 68.75785 36915 ft 495 kts 123°
2026-05-04 19:28 12.29936 68.81872 36915 ft 495 kts 123°
2026-05-04 19:29 12.26170 68.87758 36914 ft 495 kts 123°
2026-05-04 19:29 12.22373 68.93690 36914 ft 495 kts 123°
2026-05-04 19:30 12.18601 68.99578 36914 ft 494 kts 123°
2026-05-04 19:30 12.14779 69.05565 36914 ft 494 kts 123°
2026-05-04 19:31 12.10972 69.11527 36914 ft 494 kts 123°
2026-05-04 19:31 12.07211 69.17412 36913 ft 494 kts 123°
2026-05-04 19:32 12.03249 69.23609 36913 ft 494 kts 123°
2026-05-04 19:32 11.99480 69.29501 36913 ft 494 kts 123°
2026-05-04 19:33 11.95717 69.35408 36913 ft 494 kts 123°
2026-05-04 19:33 11.91961 69.41285 36913 ft 494 kts 123°
2026-05-04 19:34 11.88192 69.47175 36912 ft 494 kts 123°
2026-05-04 19:34 11.84348 69.53177 36913 ft 494 kts 123°
2026-05-04 19:35 11.80585 69.59050 36913 ft 494 kts 123°
2026-05-04 19:35 11.76972 69.64698 36912 ft 494 kts 123°
2026-05-04 19:36 11.73031 69.70840 36912 ft 494 kts 123°
2026-05-04 19:36 11.69896 69.75719 36912 ft 494 kts 123°
2026-05-04 19:37 11.66119 69.81596 36912 ft 494 kts 123°
2026-05-04 19:37 11.62349 69.87456 36912 ft 494 kts 123°
2026-05-04 19:38 11.58611 69.93237 36912 ft 494 kts 123°
2026-05-04 19:38 11.54753 69.99171 36912 ft 494 kts 123°
2026-05-04 19:39 11.50954 70.05017 36911 ft 494 kts 123°
2026-05-04 19:39 11.47095 70.10951 36911 ft 494 kts 123°
2026-05-04 19:40 11.43299 70.16788 36911 ft 494 kts 123°
2026-05-04 19:40 11.39404 70.22799 36910 ft 494 kts 123°
2026-05-04 19:41 11.35453 70.28887 36911 ft 494 kts 123°
2026-05-04 19:41 11.31680 70.34689 36906 ft 493 kts 123°
2026-05-04 19:42 11.27922 70.40463 36903 ft 491 kts 123°
2026-05-04 19:42 11.24017 70.46460 36904 ft 491 kts 123°
2026-05-04 19:43 11.20248 70.52243 36893 ft 487 kts 123°
2026-05-04 19:43 11.16991 70.57239 36888 ft 485 kts 124°
2026-05-04 19:44 11.13264 70.62952 36887 ft 483 kts 124°
2026-05-04 19:44 11.09583 70.68591 36889 ft 484 kts 124°
2026-05-04 19:45 11.05679 70.74570 36888 ft 485 kts 124°
2026-05-04 19:45 11.01747 70.80588 36886 ft 484 kts 124°
2026-05-04 19:46 10.97967 70.86369 36886 ft 483 kts 124°
2026-05-04 19:46 10.94215 70.92105 36886 ft 484 kts 124°
2026-05-04 19:47 10.90887 70.97190 36887 ft 484 kts 124°
2026-05-04 19:47 10.87147 71.02902 36886 ft 484 kts 124°
2026-05-04 19:48 10.83518 71.08441 36886 ft 484 kts 124°
2026-05-04 19:48 10.79495 71.14579 36886 ft 484 kts 124°
2026-05-04 19:49 10.75742 71.20301 36886 ft 484 kts 124°
2026-05-04 19:49 10.71977 71.26038 36886 ft 484 kts 124°
2026-05-04 19:50 10.68690 71.31044 36886 ft 484 kts 124°
2026-05-04 19:50 10.64953 71.36734 36886 ft 484 kts 124°
2026-05-04 19:51 10.61188 71.42463 36886 ft 484 kts 124°
2026-05-04 19:51 10.57445 71.48155 36886 ft 484 kts 124°
2026-05-04 19:52 10.53699 71.53849 36886 ft 484 kts 124°
2026-05-04 19:52 10.49857 71.59686 36886 ft 484 kts 124°
2026-05-04 19:53 10.45795 71.65854 36885 ft 484 kts 124°
2026-05-04 19:53 10.42378 71.71040 36886 ft 484 kts 124°
2026-05-04 19:54 10.38580 71.76802 36885 ft 484 kts 124°
2026-05-04 19:54 10.34827 71.82492 36885 ft 484 kts 124°
2026-05-04 19:55 10.31117 71.88114 36885 ft 484 kts 124°
2026-05-04 19:55 10.27330 71.93850 36885 ft 484 kts 124°
2026-05-04 19:56 10.23578 71.99531 36885 ft 484 kts 124°
2026-05-04 19:56 10.19848 72.05175 36885 ft 484 kts 124°
2026-05-04 19:57 10.16073 72.10884 36885 ft 484 kts 124°
2026-05-04 19:57 10.12323 72.16565 36885 ft 484 kts 124°
2026-05-04 19:58 10.08548 72.22270 36884 ft 484 kts 124°
2026-05-04 19:58 10.04704 72.28070 36884 ft 484 kts 124°
2026-05-04 19:59 10.00950 72.33734 36884 ft 484 kts 124°
2026-05-04 19:59 9.97374 72.39449 36885 ft 483 kts 117°
2026-05-04 20:00 9.94801 72.45905 36884 ft 485 kts 110°
2026-05-04 20:00 9.92691 72.52405 36884 ft 485 kts 109°
2026-05-04 20:01 9.90592 72.58917 36884 ft 485 kts 109°
2026-05-04 20:01 9.88485 72.65373 36884 ft 485 kts 109°
2026-05-04 20:02 9.86355 72.71866 36884 ft 485 kts 109°
2026-05-04 20:02 9.84219 72.78408 36884 ft 485 kts 109°
2026-05-04 20:03 9.82094 72.84895 36884 ft 485 kts 109°
2026-05-04 20:03 9.80279 72.90425 36883 ft 485 kts 109°
2026-05-04 20:04 9.78146 72.96912 36883 ft 485 kts 109°
2026-05-04 20:04 9.76024 73.03361 36883 ft 485 kts 109°
2026-05-04 20:05 9.73862 73.09928 36883 ft 485 kts 109°
2026-05-04 20:05 9.71711 73.16454 36883 ft 485 kts 109°
2026-05-04 20:06 9.69469 73.23253 36883 ft 485 kts 109°
2026-05-04 20:06 9.67324 73.29752 36883 ft 485 kts 109°
2026-05-04 20:07 9.65169 73.36277 36883 ft 485 kts 109°
2026-05-04 20:07 9.63228 73.42152 36882 ft 485 kts 109°
2026-05-04 20:08 9.61072 73.48673 36882 ft 485 kts 109°
2026-05-04 20:08 9.58926 73.55157 36882 ft 485 kts 109°
2026-05-04 20:09 9.56722 73.61815 36882 ft 485 kts 109°
2026-05-04 20:09 9.54561 73.68335 36882 ft 485 kts 109°
2026-05-04 20:10 9.52410 73.74822 36882 ft 485 kts 109°
2026-05-04 20:10 9.50178 73.81569 36882 ft 485 kts 109°
2026-05-04 20:11 9.48028 73.88048 36881 ft 485 kts 109°
2026-05-04 20:11 9.45905 73.94430 36881 ft 485 kts 109°
2026-05-04 20:12 9.43691 74.01083 36881 ft 485 kts 109°
2026-05-04 20:12 9.41531 74.07566 36880 ft 485 kts 109°
2026-05-04 20:13 9.39389 74.14085 36880 ft 485 kts 109°
2026-05-04 20:13 9.37290 74.20527 36880 ft 485 kts 109°
2026-05-04 20:14 9.35159 74.27056 36880 ft 485 kts 109°
2026-05-04 20:14 9.33041 74.33537 36880 ft 485 kts 109°
2026-05-04 20:15 9.31279 74.38923 36879 ft 485 kts 109°
2026-05-04 20:15 9.29121 74.45542 36879 ft 485 kts 109°
2026-05-04 20:16 9.27010 74.52025 36879 ft 485 kts 109°
2026-05-04 20:16 9.24852 74.58633 36878 ft 485 kts 109°
2026-05-04 20:17 9.22744 74.65078 36878 ft 484 kts 109°
2026-05-04 20:17 9.20676 74.71396 36879 ft 484 kts 109°
2026-05-04 20:18 9.18489 74.78070 36878 ft 485 kts 109°
2026-05-04 20:18 9.16364 74.84551 36877 ft 484 kts 109°
2026-05-04 20:19 9.14180 74.91206 36877 ft 484 kts 109°
2026-05-04 20:19 9.12057 74.97673 36876 ft 484 kts 109°
2026-05-04 20:20 9.09930 75.04147 36875 ft 484 kts 109°
2026-05-04 20:20 9.07817 75.10573 36875 ft 484 kts 109°
2026-05-04 20:21 9.05684 75.17058 36875 ft 484 kts 109°
2026-05-04 20:21 9.02462 75.26845 36875 ft 484 kts 109°
2026-05-04 20:22 9.00332 75.33309 36874 ft 484 kts 109°
2026-05-04 20:22 8.98115 75.40030 36874 ft 484 kts 109°
2026-05-04 20:23 8.96199 75.45840 36875 ft 484 kts 109°
2026-05-04 20:23 8.94037 75.52389 36866 ft 483 kts 109°
2026-05-04 20:24 8.91929 75.58770 36867 ft 483 kts 109°
2026-05-04 20:24 8.89740 75.65389 36869 ft 483 kts 109°
2026-05-04 20:25 8.87594 75.71877 36861 ft 484 kts 109°
2026-05-04 20:25 8.85446 75.78368 36859 ft 483 kts 109°
2026-05-04 20:26 8.83296 75.84860 36860 ft 483 kts 109°
2026-05-04 20:26 8.81161 75.91303 36861 ft 483 kts 109°
2026-05-04 20:27 8.79007 75.97796 36855 ft 483 kts 109°
2026-05-04 20:27 8.76876 76.04221 36852 ft 482 kts 109°
2026-05-04 20:28 8.74729 76.10687 36853 ft 482 kts 109°
2026-05-04 20:28 8.72590 76.17123 36852 ft 482 kts 109°
2026-05-04 20:29 8.70436 76.23603 36849 ft 482 kts 109°
2026-05-04 20:29 8.68315 76.29980 36850 ft 482 kts 109°
2026-05-04 20:30 8.66179 76.36397 36851 ft 482 kts 109°
2026-05-04 20:30 8.64387 76.41779 36850 ft 482 kts 109°
2026-05-04 20:31 8.62248 76.48196 36848 ft 482 kts 109°
2026-05-04 20:31 8.60080 76.54702 36847 ft 481 kts 109°
2026-05-04 20:32 8.57942 76.61110 36847 ft 481 kts 109°
2026-05-04 20:32 8.55779 76.67610 36846 ft 481 kts 109°
2026-05-04 20:33 8.53638 76.74016 36846 ft 481 kts 109°
2026-05-04 20:33 8.51595 76.80123 36846 ft 481 kts 109°
2026-05-04 20:34 8.49275 76.87054 36846 ft 481 kts 109°
2026-05-04 20:34 8.47286 76.93834 36848 ft 481 kts 102°
2026-05-04 20:35 8.46301 77.00524 36847 ft 482 kts 97°
2026-05-04 20:35 8.45685 77.07286 36847 ft 483 kts 96°
2026-05-04 20:36 8.45019 77.14039 36846 ft 483 kts 97°
2026-05-04 20:36 8.44280 77.20839 36846 ft 483 kts 97°
2026-05-04 20:37 8.43530 77.27589 36820 ft 483 kts 97°
2026-05-04 20:37 8.42787 77.34318 36819 ft 483 kts 97°
2026-05-04 20:38 8.42032 77.41072 36821 ft 483 kts 98°
2026-05-04 20:38 8.41274 77.47818 36821 ft 483 kts 98°
2026-05-04 20:39 8.40633 77.53513 36821 ft 483 kts 98°
2026-05-04 20:39 8.39872 77.60270 36822 ft 484 kts 98°
2026-05-04 20:40 8.39132 77.66810 36823 ft 486 kts 98°
2026-05-04 20:40 8.38338 77.73824 36823 ft 486 kts 98°
2026-05-04 20:41 8.37565 77.80648 36823 ft 485 kts 98°
2026-05-04 20:41 8.36797 77.87418 36825 ft 486 kts 98°
2026-05-04 20:42 8.36027 77.94184 36825 ft 488 kts 98°
2026-05-04 20:42 8.35247 78.01037 36825 ft 486 kts 98°
2026-05-04 20:43 8.34475 78.07810 36825 ft 485 kts 98°
2026-05-04 20:43 8.33705 78.14546 36827 ft 487 kts 98°
2026-05-04 20:44 8.32916 78.21447 36826 ft 488 kts 98°
2026-05-04 20:44 8.32137 78.28255 36826 ft 488 kts 98°
2026-05-04 20:45 8.31329 78.35351 36830 ft 487 kts 98°
2026-05-04 20:45 8.30545 78.42153 36830 ft 487 kts 98°
2026-05-04 20:46 8.29764 78.48919 36830 ft 487 kts 98°
2026-05-04 20:46 8.28967 78.55766 36832 ft 486 kts 99°
2026-05-04 20:47 8.28227 78.59080 36836 ft 484 kts 110°
2026-05-04 20:47 8.26906 78.62152 36834 ft 483 kts 121°
2026-05-04 20:47 8.24861 78.64992 36845 ft 482 kts 132°
2026-05-04 20:47 8.22538 78.67389 36843 ft 483 kts 136°
2026-05-04 20:48 8.17738 78.72143 36849 ft 482 kts 135°
2026-05-04 20:48 8.13124 78.77107 36861 ft 481 kts 133°
2026-05-04 20:49 8.08559 78.82255 36875 ft 482 kts 132°
2026-05-04 20:49 8.04804 78.86487 36884 ft 483 kts 133°
2026-05-04 20:50 8.00187 78.91686 36884 ft 484 kts 133°
2026-05-04 20:50 7.95811 78.96603 36882 ft 483 kts 132°
2026-05-04 20:51 7.91318 79.01653 36884 ft 483 kts 133°
2026-05-04 20:51 7.86853 79.06667 36884 ft 483 kts 133°
2026-05-04 20:52 7.82320 79.11750 36884 ft 484 kts 133°
2026-05-04 20:52 7.77809 79.16808 36884 ft 484 kts 133°
2026-05-04 20:53 7.73252 79.21914 36884 ft 483 kts 133°
2026-05-04 20:53 7.68812 79.26921 36884 ft 484 kts 132°
2026-05-04 20:54 7.64296 79.32068 36884 ft 484 kts 132°
2026-05-04 20:54 7.59827 79.37158 36884 ft 484 kts 132°
2026-05-04 20:55 7.55331 79.42273 36884 ft 484 kts 132°
2026-05-04 20:55 7.50891 79.47324 36883 ft 484 kts 132°
2026-05-04 20:56 7.46340 79.52506 36883 ft 484 kts 132°
2026-05-04 20:56 7.41872 79.57594 36883 ft 484 kts 132°
2026-05-04 20:57 7.37471 79.62599 36863 ft 484 kts 132°
2026-05-04 20:57 7.32671 79.68063 36857 ft 484 kts 132°
2026-05-04 20:58 7.28196 79.73146 36854 ft 484 kts 132°
2026-05-04 20:58 7.23702 79.78249 36853 ft 484 kts 132°
2026-05-04 20:59 7.19649 79.82850 36852 ft 484 kts 132°
2026-05-04 20:59 7.15459 79.88431 36853 ft 485 kts 121°
2026-05-04 21:00 7.12265 79.94499 36863 ft 486 kts 117°
2026-05-04 21:00 7.09324 80.00633 36863 ft 487 kts 117°
2026-05-04 21:01 7.06661 80.06111 36858 ft 487 kts 117°
2026-05-04 21:01 7.03668 80.12223 36856 ft 487 kts 117°
2026-05-04 21:02 7.00671 80.18329 36876 ft 486 kts 117°
2026-05-04 21:02 6.97659 80.24479 36878 ft 486 kts 117°
2026-05-04 21:03 6.94639 80.30631 36876 ft 486 kts 117°
2026-05-04 21:03 6.91635 80.36744 36876 ft 486 kts 117°
2026-05-04 21:04 6.88633 80.42852 36876 ft 487 kts 118°
2026-05-04 21:04 6.85632 80.48967 36876 ft 487 kts 118°
2026-05-04 21:05 6.82617 80.55093 36876 ft 489 kts 118°
2026-05-04 21:05 6.79599 80.61221 36876 ft 488 kts 118°
2026-05-04 21:06 6.76579 80.67352 36873 ft 488 kts 118°
2026-05-04 21:06 6.73558 80.73483 36873 ft 489 kts 118°
2026-05-04 21:07 6.70419 80.79735 36861 ft 490 kts 118°
2026-05-04 21:07 6.67345 80.85851 36859 ft 489 kts 118°
2026-05-04 21:08 6.64281 80.91955 36857 ft 488 kts 118°
2026-05-04 21:08 6.61138 80.98217 36858 ft 488 kts 118°
2026-05-04 21:09 6.60125 81.00236 36857 ft 488 kts 118°